88.4000; 102.7000;1; 237.935; 250.975;2003.06.02 12:00:00;  -4.7;1016.1;   3.0; 300.0;    .000;    .000;   0.000; 90;
88.4000; 102.6000;2; 237.905; 250.981;2003.06.02 18:00:00;  -4.4;1016.2;   2.0; 310.0;    .310;    .250;   0.052;270;
88.4000; 102.4000;2; 237.847; 250.994;2003.06.03 00:00:00;  -9.0;1017.0;   3.0; 330.0;    .931;    .500;   0.103;270;
88.4000; 102.2000;2; 237.788; 251.007;2003.06.03 06:00:00;  -5.3;1017.6;   3.0;  20.0;   1.552;    .750;   0.103;270;
88.4000; 101.9000;2; 237.699; 251.026;2003.06.03 12:00:00;  -4.6;1019.0;   3.0;  40.0;   2.484;   1.000;   0.155;270;
88.4000; 101.7000;2; 237.640; 251.038;2003.06.03 18:00:00;  -4.8;1019.5;   4.0; 100.0;   3.105;   1.250;   0.103;270;
88.4000; 101.7000;2; 237.640; 251.038;2003.06.04 00:00:00;  -4.7;1020.3;   2.0;  40.0;   3.105;   1.500;   0.000; 90;
88.4000; 101.1000;2; 237.463; 251.074;2003.06.04 06:00:00;  -4.8;1020.8;   4.0;  70.0;   4.968;   1.750;   0.310;270;
88.4000; 100.7000;2; 237.345; 251.097;2003.06.04 12:00:00;  -5.0;1021.5;   3.0;  90.0;   6.209;   2.000;   0.207;270;
88.4000; 100.5000;2; 237.286; 251.108;2003.06.04 18:00:00;  -5.1;1022.2;   4.0;  80.0;   6.830;   2.250;   0.103;270;
88.4000; 100.2000;2; 237.197; 251.124;2003.06.05 00:00:00;  -5.6;1023.0;   3.0; 100.0;   7.762;   2.500;   0.155;270;
88.4000; 100.0000;2; 237.138; 251.135;2003.06.05 06:00:00;  -5.6;1023.3;   4.0;  80.0;   8.383;   2.750;   0.103;270;
88.4000;  99.8000;2; 237.078; 251.145;2003.06.05 12:00:00;  -4.8;1023.8;   2.0;  70.0;   9.004;   3.000;   0.103;270;
88.4000;  99.7000;2; 237.049; 251.150;2003.06.05 18:00:00;  -5.4;1023.6;   4.0; 120.0;   9.314;   3.250;   0.052;270;
88.4000;  99.4000;2; 236.959; 251.165;2003.06.06 00:00:00;  -5.6;1023.1;   2.0; 120.0;  10.246;   3.500;   0.155;270;
88.5000;  99.3000;2; 236.755; 250.106;2003.06.06 06:00:00;  -6.4;1021.9;   3.0; 100.0;  21.369;   3.750;   1.854;358;
88.5000;  99.0000;2; 236.672; 250.119;2003.06.06 18:00:00;  -6.6;1020.4;   3.0; 870.0;  22.242;   4.250;   0.073;270;
88.5000;  98.9000;2; 236.644; 250.124;2003.06.07 00:00:00;  -4.7;1020.1;   2.0; 710.0;  22.533;   4.500;   0.049;270;
88.5000;  98.8000;2; 236.616; 250.128;2003.06.07 06:00:00;  -3.6;1020.4;   1.0; 130.0;  22.824;   4.750;   0.049;270;
88.5000;  98.6000;2; 236.560; 250.137;2003.06.07 12:00:00;  -3.5;1021.3;   0.0;   0.0;  23.407;   5.000;   0.097;270;
88.5000;  98.4000;2; 236.504; 250.145;2003.06.08 00:00:00;  -3.3;1022.5;   1.0; 100.0;  23.989;   5.500;   0.049;270;
88.5000;  98.3000;2; 236.476; 250.149;2003.06.08 06:00:00;  -3.9;1022.8;   2.0; 130.0;  24.280;   5.750;   0.049;270;
88.5000;  98.2000;2; 236.448; 250.153;2003.06.08 12:00:00;  -5.6;1022.2;   3.0;  90.0;  24.571;   6.000;   0.049;270;
88.5000;  98.0000;2; 236.393; 250.161;2003.06.08 18:00:00;  -4.8;1020.4;   8.0; 100.0;  25.153;   6.250;   0.097;270;
88.5000;  97.7000;2; 236.309; 250.173;2003.06.09 00:00:00;  -3.2;1017.4;   6.0; 100.0;  26.026;   6.500;   0.146;270;
88.5000;  97.6000;2; 236.281; 250.176;2003.06.09 06:00:00;  -5.0;1015.6;   6.0; 140.0;  26.317;   6.750;   0.049;270;
88.6000;  97.3000;2; 236.060; 249.117;2003.06.09 12:00:00;  -3.6;1014.9;   7.0; 130.0;  37.469;   7.000;   1.859;356;
88.6000;  97.1000;2; 236.007; 249.124;2003.06.09 18:00:00;  -3.8;1014.4;   6.0; 120.0;  38.012;   7.250;   0.091;270;
88.6000;  96.6000;2; 235.877; 249.140;2003.06.10 00:00:00;  -1.7;1014.4;   7.0; 120.0;  39.370;   7.500;   0.226;270;
88.6000;  96.1000;2; 235.746; 249.154;2003.06.10 06:00:00;  -1.9;1014.9;   8.0; 120.0;  40.729;   7.750;   0.226;270;
88.6000;  95.5000;2; 235.588; 249.170;2003.06.10 12:00:00;  -1.9;1015.7;   7.0; 110.0;  42.359;   8.000;   0.272;270;
88.6000;  94.8000;2; 235.405; 249.187;2003.06.10 18:00:00;  -1.8;1016.6;   8.0; 120.0;  44.260;   8.250;   0.317;270;
88.6000;  94.0000;2; 235.194; 249.203;2003.06.11 00:00:00;  -3.8;1017.8;   7.0; 100.0;  46.434;   8.500;   0.362;270;
88.7000;  93.0000;2; 234.875; 248.142;2003.06.11 06:00:00;  -1.9;1017.7;   8.0;  80.0;  57.857;   8.750;   1.904;347;
88.7000;  91.9000;2; 234.606; 248.154;2003.06.11 12:00:00;  -1.9;1017.1;   8.0;  60.0;  60.632;   9.000;   0.462;270;
88.7000;  90.8000;2; 234.337; 248.160;2003.06.11 18:00:00;  -0.3;1015.6;   9.0;  60.0;  63.407;   9.250;   0.462;270;
88.7000;  89.5000;2; 234.019; 248.161;2003.06.12 00:00:00;  -1.7;1013.5;  12.0;  60.0;  66.686;   9.500;   0.547;270;
88.7000;  87.9000;2; 233.627; 248.152;2003.06.12 06:00:00;  -1.0;1010.3;  12.0;  50.0;  70.723;   9.750;   0.673;270;
88.6000;  86.5000;2; 233.219; 249.212;2003.06.12 12:00:00;   0.0;1009.4;   8.0;  70.0;  82.430;  10.000;   1.951;198;
88.7000;  85.7000;2; 233.090; 248.122;2003.06.12 18:00:00;   0.0;1010.7;   7.0;  70.0;  93.745;  10.250;   1.886;349;
88.6000;  84.7000;2; 232.746; 249.175;2003.06.13 00:00:00;  -0.6;1012.3;   6.0;  60.0; 105.169;  10.500;   1.904;193;
88.6000;  83.7000;2; 232.484; 249.149;2003.06.13 06:00:00;   0.0;1011.6;   7.0;  40.0; 107.885;  10.750;   0.453;270;
88.6000;  82.6000;2; 232.197; 249.114;2003.06.13 12:00:00;   0.0;1012.6;   6.0;  50.0; 110.874;  11.000;   0.498;270;
88.6000;  81.7000;2; 231.962; 249.082;2003.06.13 18:00:00;  -0.1;1013.7;   7.0;  50.0; 113.319;  11.250;   0.408;270;
88.6000;  80.9000;2; 231.753; 249.050;2003.06.14 00:00:00;   0.0;1014.8;   8.0;  50.0; 115.492;  11.500;   0.362;270;
88.6000;  80.2000;2; 231.571; 249.020;2003.06.14 06:00:00;   0.2;1015.9;   6.0;  60.0; 117.394;  11.750;   0.317;270;
88.6000;  79.4000;2; 231.364; 248.982;2003.06.14 12:00:00;   0.1;1017.4;   6.0;  70.0; 119.567;  12.000;   0.362;270;
88.6000;  78.7000;2; 231.183; 248.947;2003.06.14 18:00:00;   0.2;1018.4;   5.0;  50.0; 121.469;  12.250;   0.317;270;
88.6000;  78.0000;2; 231.002; 248.910;2003.06.15 00:00:00;  -0.6;1019.0;   6.0;  70.0; 123.370;  12.500;   0.317;270;
88.6000;  77.4000;2; 230.847; 248.876;2003.06.15 06:00:00;  -1.1;1019.5;   6.0;  50.0; 125.000;  12.750;   0.272;270;
88.6000;  76.8000;2; 230.693; 248.841;2003.06.15 12:00:00;  -1.9;1020.0;   5.0;  80.0; 126.630;  13.000;   0.272;270;
88.6000;  76.8000;2; 230.693; 248.841;2003.06.15 18:00:00;  -1.9;1020.0;   6.0;  80.0; 126.630;  13.250;   0.000; 90;
88.6000;  75.9000;2; 230.463; 248.785;2003.06.16 00:00:00;  -1.1;1020.3;   6.0; 100.0; 129.076;  13.500;   0.408;270;
88.6000;  75.5000;2; 230.361; 248.759;2003.06.16 06:00:00;  -1.4;1020.3;   5.0; 120.0; 130.162;  13.750;   0.181;270;
88.6000;  75.1000;2; 230.259; 248.732;2003.06.16 12:00:00;  -1.1;1019.8;   6.0; 120.0; 131.249;  14.000;   0.181;270;
88.6000;  74.9000;2; 230.208; 248.719;2003.06.16 18:00:00;  -0.3;1018.6;   6.0; 120.0; 131.792;  14.250;   0.091;270;
88.6000;  74.6000;2; 230.132; 248.698;2003.06.17 00:00:00;   0.0;1017.2;   6.0; 140.0; 132.607;  14.500;   0.136;270;
88.6000;  74.3000;2; 230.055; 248.677;2003.06.17 06:00:00;  -0.6;1015.7;   6.0; 120.0; 133.422;  14.750;   0.136;270;
88.7000;  73.9000;2; 230.253; 247.611;2003.06.17 12:00:00;  -0.1;1011.5;   9.0; 110.0; 144.591;  15.000;   1.861;355;
88.7000;  73.2000;2; 230.089; 247.563;2003.06.17 18:00:00;   0.4;1002.5;  11.0; 120.0; 146.357;  15.250;   0.294;270;
88.7000;  72.5000;2; 229.925; 247.512;2003.06.18 00:00:00;   0.3; 999.2;   9.0; 150.0; 148.123;  15.500;   0.294;270;
88.7000;  72.4000;2; 229.902; 247.505;2003.06.18 06:00:00;   0.3; 999.2;  10.0; 170.0; 148.375;  15.750;   0.042;270;
88.7000;  72.4000;2; 229.902; 247.505;2003.06.18 12:00:00;   0.0; 998.5;   9.0; 190.0; 148.375;  16.000;   0.000; 90;
88.8000;  72.9000;2; 230.336; 246.511;2003.06.18 18:00:00;   0.0; 997.1;  12.0; 170.0; 159.561;  16.250;   1.864;  6;
88.8000;  73.6000;2; 230.487; 246.556;2003.06.19 00:00:00;   0.0; 992.6;   6.0; 190.0; 161.191;  16.500;   0.272; 90;
88.8000;  74.8000;2; 230.748; 246.630;2003.06.19 06:00:00;  -0.5; 997.7;   9.0; 240.0; 163.985;  16.750;   0.466; 90;
88.8000;  76.1000;2; 231.032; 246.704;2003.06.19 12:00:00;   0.0;1002.6;  12.0; 260.0; 167.013;  17.000;   0.505; 90;
88.8000;  77.7000;2; 231.384; 246.786;2003.06.19 18:00:00;   0.0;1006.8;   9.0; 260.0; 170.738;  17.250;   0.621; 90;
88.8000;  78.8000;2; 231.627; 246.836;2003.06.20 00:00:00;  -0.9;1010.2;   6.0; 260.0; 173.300;  17.500;   0.427; 90;
88.8000;  79.1000;2; 231.694; 246.849;2003.06.20 06:00:00;  -1.9;1009.8;   3.0; 170.0; 173.999;  17.750;   0.116; 90;
88.8000;  78.9000;2; 231.650; 246.841;2003.06.20 12:00:00;  -0.8;1006.5;   4.0; 100.0; 174.464;  18.000;   0.078;270;
88.8000;  78.4000;2; 231.539; 246.818;2003.06.20 18:00:00;  -0.7;1003.1;   5.0;  50.0; 175.629;  18.250;   0.194;270;
88.8000;  80.0000;2; 231.894; 246.886;2003.06.21 00:00:00;   1.1;1003.3;   5.0; 350.0; 179.354;  18.500;   0.621; 90;
88.8000;  78.8000;2; 231.627; 246.836;2003.06.21 06:00:00;   0.7;1005.8;   4.0; 320.0; 182.149;  18.750;   0.466;270;
88.8000;  78.0000;2; 231.450; 246.800;2003.06.21 12:00:00;  -1.4;1009.3;   7.0; 290.0; 184.012;  19.000;   0.310;270;
88.8000;  78.6000;2; 231.583; 246.827;2003.06.21 18:00:00;   0.3;1010.2;   6.0; 250.0; 185.409;  19.250;   0.233; 90;
88.8000;  79.5000;2; 231.783; 246.866;2003.06.22 00:00:00;   0.0;1011.5;   6.0; 230.0; 187.505;  19.500;   0.349; 90;
88.8000;  80.3000;2; 231.961; 246.898;2003.06.22 06:00:00;   0.0;1012.0;   6.0; 250.0; 189.368;  19.750;   0.310; 90;
88.8000;  81.0000;2; 232.117; 246.923;2003.06.22 12:00:00;  -1.1;1012.3;   6.0; 220.0; 190.998;  20.000;   0.272; 90;
88.8000;  81.6000;2; 232.251; 246.944;2003.06.22 18:00:00;  -0.9;1010.6;   5.0; 190.0; 192.395;  20.250;   0.233; 90;
88.8000;  81.9000;2; 232.318; 246.954;2003.06.23 00:00:00;  -0.1;1008.6;   4.0; 170.0; 193.093;  20.500;   0.116; 90;
88.8000;  82.0000;2; 232.340; 246.957;2003.06.23 06:00:00;   0.2;1007.3;   1.0; 270.0; 193.326;  20.750;   0.039; 90;
88.8000;  82.1000;2; 232.362; 246.960;2003.06.23 12:00:00;  -1.0;1007.9;   5.0; 310.0; 193.559;  21.000;   0.039; 90;
88.8000;  82.2000;2; 232.385; 246.963;2003.06.23 18:00:00;  -0.5;1008.5;   4.0; 300.0; 193.792;  21.250;   0.039; 90;
88.8000;  82.4000;2; 232.430; 246.969;2003.06.24 00:00:00;   0.0;1008.8;   3.0; 280.0; 194.258;  21.500;   0.078; 90;
88.8000;  82.5000;2; 232.452; 246.972;2003.06.24 06:00:00;  -0.2;1008.5;   3.0; 290.0; 194.491;  21.750;   0.039; 90;
88.8000;  82.7000;2; 232.497; 246.978;2003.06.24 12:00:00;  -0.5;1008.7;   4.0; 290.0; 194.956;  22.000;   0.078; 90;
88.8000;  82.7000;2; 232.497; 246.978;2003.06.24 18:00:00;  -1.2;1005.8;   2.0; 190.0; 194.957;  22.250;   0.000; 90;
88.8000;  82.8000;2; 232.519; 246.981;2003.06.25 00:00:00;  -0.8;1004.6;   1.0;  70.0; 195.189;  22.500;   0.039; 90;
88.8000;  82.2000;2; 232.385; 246.963;2003.06.25 12:00:00;  -0.2;1004.8;   0.0;   0.0; 196.587;  23.000;   0.116;270;
88.8000;  81.8000;2; 232.295; 246.950;2003.06.25 18:00:00;  -0.8;1004.1;   4.0; 340.0; 197.518;  23.250;   0.155;270;
88.8000;  81.3000;2; 232.184; 246.934;2003.06.26 00:00:00;   0.0;1004.1;   2.0;  70.0; 198.682;  23.500;   0.194;270;
88.8000;  80.7000;2; 232.050; 246.913;2003.06.26 06:00:00;   0.0;1003.2;   2.0;  10.0; 200.080;  23.750;   0.233;270;
88.8000;  80.2000;2; 231.938; 246.894;2003.06.26 12:00:00;   0.0;1003.3;   5.0; 350.0; 201.244;  24.000;   0.194;270;
88.8000;  79.8000;2; 231.849; 246.878;2003.06.26 18:00:00;   0.0;1002.6;   5.0; 350.0; 202.175;  24.250;   0.155;270;
88.8000;  79.5000;2; 231.783; 246.866;2003.06.27 00:00:00;  -0.2;1002.3;   6.0; 350.0; 202.874;  24.500;   0.116;270;
88.8000;  78.9000;2; 231.650; 246.841;2003.06.27 06:00:00;   0.0;1002.0;   5.0;  20.0; 204.271;  24.750;   0.233;270;
88.8000;  78.0000;2; 231.450; 246.800;2003.06.27 12:00:00;   0.0;1003.1;   6.0; 360.0; 206.367;  25.000;   0.349;270;
88.8000;  77.4000;2; 231.318; 246.771;2003.06.27 18:00:00;   0.0;1002.4;   7.0; 350.0; 207.764;  25.250;   0.233;270;
88.7000;  76.7000;2; 230.916; 247.785;2003.06.28 00:00:00;  -0.3;1002.3;   7.0; 360.0; 219.013;  25.500;   1.875;189;
88.7000;  76.3000;2; 230.821; 247.762;2003.06.28 06:00:00;  -0.1;1000.8;   6.0;  20.0; 220.022;  25.750;   0.168;270;
88.7000;  75.5000;2; 230.631; 247.715;2003.06.28 12:00:00;  -1.5;1001.0;   5.0;  20.0; 222.040;  26.000;   0.336;270;
88.6000;  74.8000;2; 230.182; 248.712;2003.06.28 18:00:00;  -1.8;1001.6;   6.0;  40.0; 233.310;  26.250;   1.878;189;
88.6000;  73.8000;2; 229.929; 248.640;2003.06.29 00:00:00;  -1.8;1003.7;   6.0;  50.0; 236.026;  26.500;   0.453;270;
88.6000;  73.0000;2; 229.727; 248.580;2003.06.29 06:00:00;  -1.7;1005.1;   5.0;  50.0; 238.200;  26.750;   0.362;270;
88.6000;  72.4000;2; 229.576; 248.533;2003.06.29 12:00:00;   0.0;1005.0;   7.0;  20.0; 239.830;  27.000;   0.272;270;
88.6000;  71.6000;2; 229.375; 248.468;2003.06.29 18:00:00;   0.0;1002.7;   9.0;  40.0; 242.003;  27.250;   0.362;270;
88.6000;  70.5000;2; 229.101; 248.374;2003.06.30 00:00:00;   0.0;1002.8;   8.0;  50.0; 244.991;  27.500;   0.498;270;
88.6000;  69.4000;2; 228.829; 248.274;2003.06.30 06:00:00;   0.1;1005.0;   7.0;  80.0; 247.980;  27.750;   0.498;270;
88.6000;  68.5000;2; 228.607; 248.189;2003.06.30 12:00:00;  -0.6;1008.5;   6.0; 100.0; 250.425;  28.000;   0.408;270;
88.6000;  67.9000;2; 228.461; 248.131;2003.06.30 18:00:00;  -1.0;1009.3;   4.0;  40.0; 252.055;  28.250;   0.272;270;
88.6000;  67.3000;2; 228.314; 248.070;2003.07.01 00:00:00;  -0.1;1006.3;  10.0;  40.0; 253.685;  28.500;   0.272;270;
88.5000;  66.8000;2; 227.768; 249.010;2003.07.01 06:00:00;   0.3;1001.6;   9.0;  20.0; 264.893;  28.750;   1.868;187;
88.5000;  65.3000;2; 227.381; 248.838;2003.07.01 12:00:00;   0.0;1001.0;  11.0;  70.0; 269.259;  29.000;   0.728;270;
88.5000;  63.2000;2; 226.847; 248.581;2003.07.01 18:00:00;  -0.1;1003.6;  13.0;  90.0; 275.371;  29.250;   1.019;270;
88.5000;  61.6000;2; 226.447; 248.371;2003.07.02 00:00:00;   0.1;1008.2;  12.0;  90.0; 280.028;  29.500;   0.776;270;
88.5000;  60.5000;2; 226.175; 248.221;2003.07.02 06:00:00;   0.2;1012.3;   9.0; 100.0; 283.230;  29.750;   0.534;270;
88.5000;  59.6000;2; 225.955; 248.094;2003.07.02 12:00:00;  -0.5;1016.9;   6.0; 110.0; 285.849;  30.000;   0.437;270;
88.5000;  58.2000;2; 225.616; 247.890;2003.07.02 18:00:00;   0.0;1017.8;   4.0;  40.0; 289.924;  30.250;   0.679;270;
88.5000;  58.5000;2; 225.689; 247.935;2003.07.03 00:00:00;  -0.1;1018.0;   6.0;  30.0; 290.798;  30.500;   0.146; 90;
88.4000;  58.2000;2; 225.048; 248.807;2003.07.03 06:00:00;   0.7;1015.4;   7.0; 360.0; 301.953;  30.750;   1.859;185;
88.4000;  57.6000;2; 224.895; 248.711;2003.07.03 12:00:00;  -0.2;1014.8;   7.0;  20.0; 303.816;  31.000;   0.310;270;
88.4000;  56.9000;2; 224.718; 248.597;2003.07.03 18:00:00;  -0.5;1013.8;   8.0;  10.0; 305.989;  31.250;   0.362;270;
88.4000;  56.2000;2; 224.542; 248.480;2003.07.04 00:00:00;  -0.1;1013.1;  11.0;  10.0; 308.163;  31.500;   0.362;270;
88.3000;  55.5000;2; 223.756; 249.251;2003.07.04 06:00:00;   1.0;1012.6;   9.0;  20.0; 319.506;  31.750;   1.890;191;
88.3000;  54.9000;2; 223.599; 249.142;2003.07.04 12:00:00;   0.8;1012.9;  10.0;  40.0; 321.485;  32.000;   0.330;270;
88.3000;  54.2000;2; 223.416; 249.012;2003.07.04 18:00:00;   0.5;1013.7;   8.0;  40.0; 323.794;  32.250;   0.385;270;
88.3000;  53.8000;2; 223.313; 248.936;2003.07.05 00:00:00;   0.7;1013.7;   8.0;  30.0; 325.113;  32.500;   0.220;270;
88.2000;  53.4000;2; 222.566; 249.726;2003.07.05 06:00:00;   1.4;1011.1;   9.0;  30.0; 336.316;  32.750;   1.867;187;
88.2000;  52.7000;2; 222.377; 249.584;2003.07.05 12:00:00;   0.3;1008.5;  12.0;  40.0; 338.761;  33.000;   0.407;270;
88.2000;  51.8000;2; 222.136; 249.397;2003.07.05 18:00:00;   0.4;1008.1;  11.0;  40.0; 341.904;  33.250;   0.524;270;
88.2000;  51.1000;2; 221.950; 249.249;2003.07.06 00:00:00;   0.1;1009.9;   8.0;  40.0; 344.349;  33.500;   0.407;270;
88.1000;  50.6000;2; 221.134; 249.976;2003.07.06 06:00:00;   0.0;1010.9;   5.0;  30.0; 355.612;  33.750;   1.877;189;
88.1000;  50.4000;2; 221.079; 249.930;2003.07.06 12:00:00;   0.1;1012.0;   4.0;  20.0; 356.350;  34.000;   0.123;270;
88.1000;  50.1000;2; 220.997; 249.862;2003.07.06 18:00:00;   0.0;1012.6;   4.0;  10.0; 357.456;  34.250;   0.184;270;
88.1000;  49.7000;2; 220.887; 249.770;2003.07.07 06:00:00;   0.0;1013.6;   4.0; 170.0; 358.930;  34.750;   0.123;270;
88.1000;  49.5000;2; 220.833; 249.723;2003.07.07 12:00:00;   0.0;1015.0;   5.0;  20.0; 359.668;  35.000;   0.123;270;
88.1000;  49.3000;2; 220.778; 249.677;2003.07.07 18:00:00;  -0.6;1015.5;   4.0;  20.0; 360.405;  35.250;   0.123;270;
88.1000;  49.2000;2; 220.751; 249.653;2003.07.08 00:00:00;  -0.4;1015.8;   3.0;   0.0; 360.774;  35.500;   0.061;270;
88.1000;  49.0000;2; 220.697; 249.607;2003.07.08 12:00:00;   0.1;1016.4;   3.0;  30.0; 361.511;  36.000;   0.061;270;
88.0000;  48.9000;2; 219.961; 250.396;2003.07.08 18:00:00;   0.3;1016.5;   4.0;  10.0; 372.637;  36.250;   1.854;182;
88.0000;  48.7000;2; 219.905; 250.346;2003.07.09 00:00:00;   0.3;1017.8;   4.0;  30.0; 373.413;  36.500;   0.129;270;
88.0000;  48.6000;2; 219.876; 250.322;2003.07.09 06:00:00;   0.6;1018.2;   3.0; 350.0; 373.801;  36.750;   0.065;270;
88.0000;  48.5000;2; 219.848; 250.297;2003.07.09 12:00:00;   0.7;1018.9;   4.0; 340.0; 374.189;  37.000;   0.065;270;
88.0000;  48.5000;2; 219.848; 250.297;2003.07.09 18:00:00;   0.7;1018.4;   5.0; 330.0; 374.189;  37.250;   0.000; 90;
87.9000;  48.6000;2; 219.163; 251.131;2003.07.10 00:00:00;   0.8;1018.5;   6.0; 330.0; 385.316;  37.500;   1.854;178;
87.9000;  48.8000;2; 219.222; 251.183;2003.07.10 06:00:00;   0.9;1017.4;   7.0; 330.0; 386.130;  37.750;   0.136; 90;
87.9000;  48.9000;2; 219.252; 251.209;2003.07.10 12:00:00;   0.9;1018.0;   7.0; 320.0; 386.538;  38.000;   0.068; 90;
87.9000;  49.1000;2; 219.312; 251.261;2003.07.10 18:00:00;   0.9;1017.5;   6.0; 330.0; 387.353;  38.250;   0.136; 90;
87.9000;  49.2000;2; 219.342; 251.287;2003.07.11 00:00:00;   0.5;1018.1;   6.0; 330.0; 387.760;  38.500;   0.068; 90;
87.9000;  49.3000;2; 219.372; 251.312;2003.07.11 06:00:00;   0.3;1017.7;   5.0; 320.0; 388.168;  38.750;   0.068; 90;
87.9000;  49.4000;2; 219.402; 251.338;2003.07.11 12:00:00;   0.6;1017.3;   6.0; 310.0; 388.575;  39.000;   0.068; 90;
87.9000;  49.6000;2; 219.462; 251.390;2003.07.11 18:00:00;   0.3;1016.4;   6.0; 290.0; 389.390;  39.250;   0.136; 90;
87.9000;  49.7000;2; 219.492; 251.415;2003.07.12 00:00:00;  -0.9;1015.5;   5.0; 310.0; 389.798;  39.500;   0.068; 90;
87.9000;  49.9000;2; 219.552; 251.466;2003.07.12 06:00:00;  -0.7;1013.8;   6.0; 300.0; 390.613;  39.750;   0.136; 90;
87.8000;  50.0000;2; 218.889; 252.318;2003.07.12 12:00:00;   0.0;1013.7;   6.0; 310.0; 401.740;  40.000;   1.855;178;
87.8000;  50.0000;2; 218.889; 252.318;2003.07.12 18:00:00;   0.0;1014.6;   5.0; 350.0; 401.740;  40.250;   0.000; 90;
87.8000;  50.0000;2; 218.889; 252.318;2003.07.13 00:00:00;   0.7;1016.3;   5.0; 350.0; 401.740;  40.500;   0.000; 90;
87.8000;  50.0000;2; 218.889; 252.318;2003.07.13 06:00:00;   0.6;1017.8;   4.0; 360.0; 401.740;  40.750;   0.000; 90;
87.8000;  49.9000;2; 218.857; 252.291;2003.07.13 12:00:00;   0.0;1020.1;   2.0; 350.0; 402.167;  41.000;   0.071;270;
87.8000;  49.9000;2; 218.857; 252.291;2003.07.13 18:00:00;  -0.9;1021.1;   1.0; 250.0; 402.167;  41.250;   0.000; 90;
87.8000;  49.9000;2; 218.857; 252.291;2003.07.14 00:00:00;  -0.9;1021.4;   2.0; 250.0; 402.167;  41.500;   0.000; 90;
87.8000;  50.1000;2; 218.921; 252.345;2003.07.14 06:00:00;  -0.5;1020.2;   4.0; 190.0; 403.020;  41.750;   0.142; 90;
87.8000;  50.1000;2; 218.921; 252.345;2003.07.14 12:00:00;   0.4;1018.8;   2.0; 240.0; 403.020;  42.000;   0.000; 90;
87.8000;  50.1000;2; 218.921; 252.345;2003.07.14 18:00:00;  -1.0;1016.6;   4.0; 190.0; 403.020;  42.250;   0.000; 90;
87.8000;  49.9000;2; 218.857; 252.291;2003.07.15 00:00:00;  -0.6;1012.6;   4.0; 180.0; 403.874;  42.500;   0.142;270;
87.8000;  49.7000;2; 218.794; 252.238;2003.07.15 06:00:00;   0.1;1006.5;   6.0; 250.0; 404.728;  42.750;   0.142;270;
87.8000;  49.3000;2; 218.668; 252.130;2003.07.15 12:00:00;   0.0;1001.0;   4.0; 230.0; 406.435;  43.000;   0.285;270;
87.8000;  49.2000;2; 218.637; 252.103;2003.07.15 18:00:00;   0.8; 997.1;   0.0;   0.0; 406.862;  43.250;   0.071;270;
87.8000;  49.2000;2; 218.637; 252.103;2003.07.16 00:00:00;   0.6; 996.3;   3.0; 240.0; 406.862;  43.500;   0.000; 90;
87.8000;  49.4000;2; 218.700; 252.157;2003.07.16 06:00:00;   0.2; 996.7;   4.0; 190.0; 407.716;  43.750;   0.142; 90;
87.8000;  49.7000;2; 218.794; 252.238;2003.07.16 12:00:00;   0.1; 997.3;   4.0; 220.0; 408.996;  44.000;   0.213; 90;
87.8000;  49.9000;2; 218.857; 252.291;2003.07.16 18:00:00;   0.3; 998.0;   3.0; 250.0; 409.850;  44.250;   0.142; 90;
87.8000;  49.9000;2; 218.857; 252.291;2003.07.17 00:00:00;   0.5; 999.6;   3.0; 210.0; 409.850;  44.500;   0.000; 90;
87.7000;  49.9000;2; 218.162; 253.117;2003.07.17 06:00:00;   0.3;1001.1;   3.0; 230.0; 420.970;  44.750;   1.853;180;
87.7000;  49.7000;2; 218.096; 253.061;2003.07.17 12:00:00;   0.0;1002.9;   4.0; 190.0; 421.862;  45.000;   0.149;270;
87.7000;  49.5000;2; 218.030; 253.005;2003.07.17 18:00:00;  -0.8;1004.2;   5.0; 200.0; 422.755;  45.250;   0.149;270;
87.7000;  49.5000;2; 218.030; 253.005;2003.07.18 00:00:00;   0.0;1006.6;   8.0; 260.0; 422.755;  45.500;   0.000; 90;
87.7000;  48.5000;2; 217.704; 252.721;2003.07.18 06:00:00;  -0.9;1007.6;   9.0; 250.0; 427.217;  45.750;   0.744;270;
87.7000;  48.1000;2; 217.574; 252.605;2003.07.18 12:00:00;  -0.2;1008.9;   6.0; 230.0; 429.002;  46.000;   0.297;270;
87.6000;  47.0000;2; 216.487; 253.073;2003.07.18 18:00:00;  -0.3;1008.8;   5.0; 240.0; 441.200;  46.250;   2.033;204;
87.6000;  47.0000;2; 216.487; 253.073;2003.07.19 00:00:00;   0.3;1007.1;   5.0; 180.0; 441.200;  46.500;   0.000; 90;
87.6000;  47.0000;2; 216.487; 253.073;2003.07.19 06:00:00;   0.2;1006.6;   4.0; 250.0; 441.200;  46.750;   0.000; 90;
87.6000;  47.8000;2; 216.753; 253.318;2003.07.19 12:00:00;  -0.1;1008.7;   2.0; 250.0; 444.925;  47.000;   0.621; 90;
87.6000;  47.6000;2; 216.686; 253.257;2003.07.19 18:00:00;   0.0;1008.6;   3.0; 240.0; 445.856;  47.250;   0.155;270;
87.6000;  47.4000;2; 216.620; 253.196;2003.07.20 00:00:00;   0.0;1008.2;   3.0; 230.0; 446.787;  47.500;   0.155;270;
87.6000;  47.3000;2; 216.586; 253.165;2003.07.20 06:00:00;  -1.0;1007.5;   3.0; 210.0; 447.253;  47.750;   0.078;270;
87.6000;  47.2000;2; 216.553; 253.134;2003.07.20 12:00:00;  -0.6;1006.9;   4.0; 190.0; 447.719;  48.000;   0.078;270;
87.6000;  47.1000;2; 216.520; 253.104;2003.07.20 18:00:00;  -1.7;1006.3;   3.0; 210.0; 448.184;  48.250;   0.078;270;
87.5000;  46.9000;2; 215.717; 253.830;2003.07.21 00:00:00;  -2.5;1006.4;   3.0; 190.0; 459.344;  48.500;   1.860;185;
87.5000;  46.8000;2; 215.682; 253.798;2003.07.21 06:00:00;  -0.9;1005.6;   2.0; 250.0; 459.829;  48.750;   0.081;270;
87.6000;  46.8000;2; 216.421; 253.011;2003.07.21 12:00:00;  -0.9;1005.6;   2.0; 250.0; 470.949;  49.000;   1.853;  0;
87.6000;  46.4000;2; 216.290; 252.887;2003.07.21 18:00:00;   0.0;1003.2;   3.0; 230.0; 472.811;  49.250;   0.310;270;
87.6000;  46.2000;2; 216.224; 252.825;2003.07.22 00:00:00;   0.1;1001.7;   5.0; 250.0; 473.742;  49.500;   0.155;270;
87.6000;  45.9000;2; 216.127; 252.731;2003.07.22 06:00:00;   0.4; 999.7;   7.0; 250.0; 475.139;  49.750;   0.233;270;
87.6000;  45.6000;2; 216.030; 252.636;2003.07.22 12:00:00;   0.3; 998.9;   7.0; 190.0; 476.536;  50.000;   0.233;270;
87.5000;  45.4000;2; 215.208; 253.341;2003.07.22 18:00:00;   0.0; 997.6;   7.0; 200.0; 487.696;  50.250;   1.860;185;
87.5000;  45.4000;2; 215.208; 253.341;2003.07.23 00:00:00;  -1.0; 997.0;   8.0; 210.0; 487.696;  50.500;   0.000; 90;
87.4000;  45.5000;2; 214.485; 254.143;2003.07.23 06:00:00;  -1.0; 996.5;   8.0; 320.0; 498.826;  50.750;   1.855;177;
87.4000;  45.4000;2; 214.450; 254.109;2003.07.23 12:00:00;  -0.1; 997.2;   6.0; 340.0; 499.331;  51.000;   0.084;270;
87.4000;  45.2000;2; 214.381; 254.040;2003.07.23 18:00:00;   0.0; 998.7;   6.0; 320.0; 500.340;  51.250;   0.168;270;